Météo par heure à Aljaraque

Ce jour, 13 Mai, Jeudi

Heure Température Précipitation Vent Pression Humidité
00:00 +14°C° 0 mm 6 m/s 764 mmHg 65%
01:00 +13°C° 0 mm 6 m/s 763 mmHg 69%
02:00 +12°C° 0 mm 5 m/s 763 mmHg 72%
03:00 +12°C° 0 mm 5 m/s 763 mmHg 76%
04:00 +12°C° 0 mm 5 m/s 763 mmHg 77%
05:00 +12°C° 0 mm 5 m/s 763 mmHg 78%
06:00 +10°C° 0 mm 5 m/s 763 mmHg 79%
07:00 +14°C° 0 mm 5 m/s 763 mmHg 68%
08:00 +16°C° 0 mm 5 m/s 763 mmHg 57%
09:00 +20°C° 0 mm 5 m/s 763 mmHg 47%
10:00 +22°C° 0 mm 5 m/s 763 mmHg 43%
11:00 +25°C° 0 mm 5 m/s 762 mmHg 39%
12:00 +27°C° 0 mm 4 m/s 762 mmHg 35%
13:00 +27°C° 0 mm 5 m/s 761 mmHg 36%
14:00 +27°C° 0 mm 5 m/s 761 mmHg 36%
15:00 +28°C° 0 mm 6 m/s 760 mmHg 37%
16:00 +27°C° 0 mm 6 m/s 760 mmHg 40%
17:00 +26°C° 0 mm 7 m/s 760 mmHg 43%
18:00 +24°C° 0 mm 7 m/s 760 mmHg 45%
19:00 +22°C° 0 mm 7 m/s 760 mmHg 54%
20:00 +21°C° 0 mm 7 m/s 761 mmHg 62%
21:00 +19°C° 0 mm 6 m/s 761 mmHg 71%
22:00 +17°C° 0 mm 6 m/s 761 mmHg 75%
23:00 +16°C° 0 mm 6 m/s 761 mmHg 79%

Demain, 14 Mai, Vendredi

Heure Température Précipitation Vent Pression Humidité
00:00 +16°C° 0 mm 6 m/s 761 mmHg 83%
01:00 +15°C° 0 mm 6 m/s 761 mmHg 85%
02:00 +14°C° 0 mm 5 m/s 761 mmHg 87%
03:00 +13°C° 0 mm 5 m/s 761 mmHg 89%
04:00 +13°C° 0 mm 5 m/s 761 mmHg 89%
05:00 +13°C° 0 mm 5 m/s 761 mmHg 89%
06:00 +11°C° 0 mm 6 m/s 761 mmHg 89%
07:00 +15°C° 0 mm 5 m/s 761 mmHg 75%
08:00 +17°C° 0 mm 5 m/s 761 mmHg 60%
09:00 +20°C° 0 mm 5 m/s 761 mmHg 46%
10:00 +23°C° 0 mm 5 m/s 761 mmHg 38%
11:00 +26°C° 0 mm 4 m/s 761 mmHg 31%
12:00 +28°C° 0 mm 4 m/s 760 mmHg 23%
13:00 +29°C° 0 mm 5 m/s 760 mmHg 22%
14:00 +30°C° 0 mm 5 m/s 760 mmHg 21%
15:00 +32°C° 0 mm 5 m/s 759 mmHg 20%
16:00 +30°C° 0 mm 5 m/s 759 mmHg 22%
17:00 +29°C° 0 mm 5 m/s 759 mmHg 24%
18:00 +29°C° 0 mm 6 m/s 759 mmHg 26%
19:00 +26°C° 0 mm 5 m/s 759 mmHg 32%
20:00 +23°C° 0 mm 5 m/s 760 mmHg 39%
21:00 +21°C° 0 mm 5 m/s 760 mmHg 45%
22:00 +20°C° 0 mm 5 m/s 760 mmHg 49%
23:00 +19°C° 0 mm 5 m/s 760 mmHg 54%

Après-demain, 15 Mai, Samedi

Heure Température Précipitation Vent Pression Humidité
00:00 +17°C° 0 mm 5 m/s 760 mmHg 58%
01:00 +16°C° 0 mm 5 m/s 760 mmHg 61%
02:00 +16°C° 0 mm 5 m/s 760 mmHg 63%
03:00 +15°C° 0 mm 5 m/s 759 mmHg 66%
04:00 +15°C° 0 mm 5 m/s 759 mmHg 66%
05:00 +15°C° 0 mm 4 m/s 760 mmHg 67%
06:00 +15°C° 0 mm 4 m/s 760 mmHg 67%
07:00 +19°C° 0 mm 5 m/s 760 mmHg 57%
08:00 +22°C° 0 mm 5 m/s 760 mmHg 46%
09:00 +26°C° 0 mm 5 m/s 760 mmHg 35%
10:00 +28°C° 0 mm 5 m/s 760 mmHg 29%
11:00 +30°C° 0 mm 4 m/s 759 mmHg 24%
12:00 +33°C° 0 mm 3 m/s 759 mmHg 19%
13:00 +34°C° 0 mm 4 m/s 759 mmHg 20%
14:00 +34°C° 0 mm 4 m/s 758 mmHg 21%
15:00 +35°C° 0 mm 4 m/s 758 mmHg 21%
16:00 +35°C° 0 mm 5 m/s 758 mmHg 25%
17:00 +34°C° 0 mm 5 m/s 757 mmHg 28%
18:00 +33°C° 0 mm 6 m/s 757 mmHg 31%
19:00 +30°C° 0 mm 6 m/s 758 mmHg 38%
20:00 +28°C° 0 mm 6 m/s 758 mmHg 46%
21:00 +24°C° 0 mm 7 m/s 759 mmHg 53%
22:00 +23°C° 0 mm 6 m/s 759 mmHg 58%
23:00 +22°C° 0 mm 6 m/s 759 mmHg 64%

16 Mai, Dimanche

Heure Température Précipitation Vent Pression Humidité
00:00 +21°C° 0 mm 6 m/s 759 mmHg 69%
01:00 +20°C° 0 mm 5 m/s 759 mmHg 71%
02:00 +19°C° 0 mm 5 m/s 759 mmHg 73%
03:00 +19°C° 0 mm 5 m/s 758 mmHg 76%
04:00 +17°C° 0 mm 5 m/s 759 mmHg 76%
05:00 +17°C° 0 mm 5 m/s 759 mmHg 77%
06:00 +17°C° 0 mm 5 m/s 759 mmHg 78%
07:00 +20°C° 0 mm 5 m/s 759 mmHg 66%
08:00 +23°C° 0 mm 6 m/s 759 mmHg 54%
09:00 +27°C° 0 mm 6 m/s 759 mmHg 42%
10:00 +29°C° 0 mm 6 m/s 759 mmHg 37%
11:00 +30°C° 0 mm 6 m/s 759 mmHg 32%
12:00 +33°C° 0 mm 6 m/s 759 mmHg 26%
13:00 +34°C° 0 mm 6 m/s 758 mmHg 26%
14:00 +34°C° 0 mm 6 m/s 758 mmHg 25%
15:00 +34°C° 0 mm 7 m/s 758 mmHg 24%
16:00 +33°C° 0 mm 7 m/s 758 mmHg 27%
17:00 +33°C° 0 mm 7 m/s 758 mmHg 29%
18:00 +32°C° 0 mm 7 m/s 758 mmHg 31%
19:00 +28°C° 0 mm 7 m/s 758 mmHg 40%
20:00 +26°C° 0 mm 7 m/s 759 mmHg 49%
21:00 +23°C° 0 mm 7 m/s 759 mmHg 58%
22:00 +22°C° 0 mm 7 m/s 760 mmHg 60%
23:00 +21°C° 0 mm 7 m/s 760 mmHg 63%

17 Mai, Lundi

Heure Température Précipitation Vent Pression Humidité
00:00 +20°C° 0 mm 7 m/s 760 mmHg 65%
01:00 +18°C° 0 mm 8 m/s 760 mmHg 63%
02:00 +17°C° 0 mm 8 m/s 760 mmHg 61%
03:00 +16°C° 0 mm 8 m/s 761 mmHg 59%
04:00 +16°C° 0 mm 8 m/s 761 mmHg 60%
05:00 +15°C° 0 mm 8 m/s 761 mmHg 60%
06:00 +14°C° 0 mm 7 m/s 762 mmHg 60%
07:00 +16°C° 0 mm 7 m/s 762 mmHg 49%
08:00 +20°C° 0 mm 7 m/s 762 mmHg 37%
09:00 +22°C° 0 mm 7 m/s 762 mmHg 25%
10:00 +24°C° 0 mm 7 m/s 762 mmHg 21%
11:00 +27°C° 0 mm 6 m/s 762 mmHg 17%
12:00 +29°C° 0 mm 6 m/s 762 mmHg 12%
13:00 +30°C° 0 mm 6 m/s 761 mmHg 12%
14:00 +32°C° 0 mm 6 m/s 761 mmHg 11%
15:00 +33°C° 0 mm 6 m/s 760 mmHg 11%
16:00 +32°C° 0 mm 6 m/s 761 mmHg 12%
17:00 +30°C° 0 mm 6 m/s 761 mmHg 13%
18:00 +29°C° 0 mm 6 m/s 761 mmHg 15%
19:00 +27°C° 0 mm 5 m/s 761 mmHg 19%
20:00 +23°C° 0 mm 5 m/s 762 mmHg 24%
21:00 +20°C° 0 mm 4 m/s 762 mmHg 29%
22:00 +19°C° 0 mm 5 m/s 762 mmHg 33%
23:00 +17°C° 0 mm 5 m/s 763 mmHg 38%

18 Mai, Mardi

Heure Température Précipitation Vent Pression Humidité
00:00 +16°C° 0 mm 5 m/s 763 mmHg 43%
01:00 +15°C° 0 mm 5 m/s 762 mmHg 45%
02:00 +15°C° 0 mm 4 m/s 762 mmHg 46%
03:00 +14°C° 0 mm 4 m/s 762 mmHg 48%
04:00 +14°C° 0 mm 4 m/s 762 mmHg 47%
05:00 +14°C° 0 mm 3 m/s 763 mmHg 47%
06:00 +16°C° 0 mm 3 m/s 763 mmHg 47%
07:00 +19°C° 0 mm 3 m/s 763 mmHg 39%
08:00 +23°C° 0 mm 2 m/s 763 mmHg 31%
09:00 +26°C° 0 mm 2 m/s 763 mmHg 23%
10:00 +28°C° 0 mm 2 m/s 763 mmHg 20%
11:00 +30°C° 0 mm 2 m/s 763 mmHg 18%
12:00 +32°C° 0 mm 2 m/s 763 mmHg 15%
13:00 +33°C° 0 mm 3 m/s 762 mmHg 15%
14:00 +34°C° 0 mm 3 m/s 762 mmHg 16%
15:00 +34°C° 0 mm 4 m/s 761 mmHg 16%
16:00 +33°C° 0 mm 4 m/s 761 mmHg 18%
17:00 +32°C° 0 mm 4 m/s 761 mmHg 21%
18:00 +30°C° 0 mm 4 m/s 761 mmHg 23%
19:00 +28°C° 0 mm 4 m/s 761 mmHg 27%
20:00 +26°C° 0 mm 3 m/s 761 mmHg 32%
21:00 +24°C° 0 mm 3 m/s 762 mmHg 37%
22:00 +22°C° 0 mm 3 m/s 762 mmHg 41%
23:00 +21°C° 0 mm 3 m/s 762 mmHg 46%
Voir plus

Nous avons besoin de votre consentement

Meteoprog et ses fournisseurs de services peuvent stocker et accéder à des données personnelles telles que des cookies, des identifiants d'appareils ou d'autres technologies similaires sur votre appareil et traiter ces données pour personnaliser le contenu et les publicités, ainsi que pour fournir des fonctionnalités de médias sociaux et analyser le trafic.

  • Stocker et/ou accéder à des informations sur votre appareil

    Des cookies, des identifiants d'appareils ou d'autres informations peuvent être stockés ou accessibles sur votre appareil aux fins indiquées ci-dessus.

  • Annonces et contenus personnalisés, mesure des annonces et des contenus, connaissance de l'audience et développement de produits

    Les annonces et le contenu peuvent être personnalisés en fonction d'un profil. D'autres données peuvent être ajoutées pour mieux personnaliser les annonces et le contenu. Les performances des publicités et du contenu peuvent être mesurées. Il est possible d'obtenir des informations sur le public qui a vu les publicités et le contenu. Ces données peuvent être utilisées pour développer ou améliorer l'expérience de l'utilisateur, les systèmes et les logiciels.

En cliquant sur "J'accepte", vous autorisez l'utilisation de cookies, des identifiants d'appareils, des balises web ou d'autres technologies similaires. Vos paramètres peuvent être modifiés dans le navigateur de votre appareil.

Dans certains cas, des intérêts légitimes peuvent être invoqués plutôt qu'un consentement. Vous pouvez en savoir plus à ce sujet dans notre Politique de confidentialité et de cookies.